Time,TemperatureF,DewpointF,PressureIn,WindDirection,WindDirectionDegrees,WindSpeedMPH,WindSpeedGustMPH,Humidity,HourlyPrecipIn,Conditions,Clouds,dailyrainin,SoftwareType,DateUTC
2013-03-24 00:02:00,54.0,-99.9,-100.00,SW,225,3.0,7.0,-999,-99.99,,,-99.99,,2013-03-24 07:02:00,
2013-03-24 01:10:00,54.0,-99.9,-100.00,SW,220,4.0,6.0,-999,-99.99,,,-99.99,,2013-03-24 08:10:00,
2013-03-24 01:53:00,54.0,-99.9,-100.00,SW,220,4.0,6.0,-999,-99.99,,,-99.99,,2013-03-24 08:53:00,
2013-03-24 02:02:00,54.0,-99.9,-100.00,SW,220,4.0,6.0,-999,-99.99,,,-99.99,,2013-03-24 09:02:00,
2013-03-24 03:10:00,50.0,-99.9,-100.00,SSW,203,2.0,5.0,-999,-99.99,,,-99.99,,2013-03-24 10:10:00,
2013-03-24 03:53:00,50.0,-99.9,-100.00,SSW,203,2.0,5.0,-999,-99.99,,,-99.99,,2013-03-24 10:53:00,
2013-03-24 04:03:00,50.0,-99.9,-100.00,SSW,203,2.0,5.0,-999,-99.99,,,-99.99,,2013-03-24 11:03:00,
2013-03-24 05:10:00,47.0,-99.9,-100.00,South,180,4.0,7.0,-999,-99.99,,,-99.99,,2013-03-24 12:10:00,
2013-03-24 05:53:00,47.0,-99.9,-100.00,South,180,4.0,7.0,-999,-99.99,,,-99.99,,2013-03-24 12:53:00,
2013-03-24 06:03:00,47.0,-99.9,-100.00,South,180,4.0,7.0,-999,-99.99,,,-99.99,,2013-03-24 13:03:00,
2013-03-24 07:10:00,44.0,-99.9,-100.00,SW,226,3.0,3.0,-999,-99.99,,,-99.99,,2013-03-24 14:10:00,
2013-03-24 07:53:00,44.0,-99.9,-100.00,SW,226,3.0,3.0,-999,-99.99,,,-99.99,,2013-03-24 14:53:00,
2013-03-24 08:02:00,44.0,-99.9,-100.00,SW,226,3.0,3.0,-999,-99.99,,,-99.99,,2013-03-24 15:02:00,
2013-03-24 09:10:00,56.0,-99.9,-100.00,SSW,208,5.0,5.0,-999,-99.99,,,-99.99,,2013-03-24 16:10:00,
2013-03-24 09:53:00,56.0,-99.9,-100.00,SSW,208,5.0,5.0,-999,-99.99,,,-99.99,,2013-03-24 16:53:00,
2013-03-24 10:03:00,56.0,-99.9,-100.00,SSW,208,5.0,5.0,-999,-99.99,,,-99.99,,2013-03-24 17:03:00,
2013-03-24 11:10:00,65.0,-99.9,-100.00,NNE,25,3.0,5.0,-999,-99.99,,,-99.99,,2013-03-24 18:10:00,
2013-03-24 11:53:00,65.0,-99.9,-100.00,NNE,25,3.0,5.0,-999,-99.99,,,-99.99,,2013-03-24 18:53:00,
2013-03-24 12:03:00,65.0,-99.9,-100.00,NNE,25,3.0,5.0,-999,-99.99,,,-99.99,,2013-03-24 19:03:00,
2013-03-24 13:10:00,69.0,-99.9,-100.00,ENE,60,1.0,4.0,-999,-99.99,,,-99.99,,2013-03-24 20:10:00,
2013-03-24 13:53:00,69.0,-99.9,-100.00,ENE,60,1.0,4.0,-999,-99.99,,,-99.99,,2013-03-24 20:53:00,
2013-03-24 14:03:00,69.0,-99.9,-100.00,ENE,60,1.0,4.0,-999,-99.99,,,-99.99,,2013-03-24 21:03:00,
2013-03-24 15:10:00,71.0,-99.9,-100.00,SW,219,6.0,8.0,-999,-99.99,,,-99.99,,2013-03-24 22:10:00,
2013-03-24 15:53:00,71.0,-99.9,-100.00,SW,219,6.0,8.0,-999,-99.99,,,-99.99,,2013-03-24 22:53:00,
2013-03-24 16:03:00,71.0,-99.9,-100.00,SW,219,6.0,8.0,-999,-99.99,,,-99.99,,2013-03-24 23:03:00,
2013-03-24 17:10:00,69.0,-99.9,-100.00,SSW,199,6.0,7.0,-999,-99.99,,,-99.99,,2013-03-25 00:10:00,
2013-03-24 17:53:00,69.0,-99.9,-100.00,SSW,199,6.0,7.0,-999,-99.99,,,-99.99,,2013-03-25 00:53:00,
2013-03-24 18:02:00,69.0,-99.9,-100.00,SSW,199,6.0,7.0,-999,-99.99,,,-99.99,,2013-03-25 01:02:00,
2013-03-24 19:10:00,62.0,-99.9,-100.00,SW,217,2.0,5.0,-999,-99.99,,,-99.99,,2013-03-25 02:10:00,
2013-03-24 19:53:00,62.0,-99.9,-100.00,SW,217,2.0,5.0,-999,-99.99,,,-99.99,,2013-03-25 02:53:00,
2013-03-24 20:03:00,62.0,-99.9,-100.00,SW,217,2.0,5.0,-999,-99.99,,,-99.99,,2013-03-25 03:03:00,
2013-03-24 21:53:00,60.0,-99.9,-100.00,West,272,6.0,6.0,-999,-99.99,,,-99.99,,2013-03-25 04:53:00,
2013-03-24 23:10:00,54.0,-99.9,-100.00,SW,219,6.0,6.0,-999,-99.99,,,-99.99,,2013-03-25 06:10:00,
2013-03-24 23:53:00,54.0,-99.9,-100.00,SW,219,6.0,6.0,-999,-99.99,,,-99.99,,2013-03-25 06:53:00,